[[{"header":{"parameterUnit":"m.s-1","parameterCategory":1,"la1":30.2991,"la2":30.254,"lo1":-89.0895,"lo2":-89.0444,"dy":0.0017,"dx":0.0017,"nx":28,"ny":28,"refTime":"2025-12-28T03:00:00:Z","depth":0,"parameterNumber":2,"parameterNumberName":"U-component_of_WINDS"},"data":[0,0,0,0,0,0,0,0,0,0,0,0,0,0,0,0,0,0,0,0,0,0,0,0,0,0,0,0,0,0,0,0,0,0,0,0,0,0,0,0,0,0,0,0,0,0,0,0,0,0,0,0,0,0,0,0,0,0,-0.5098,-0.5098,0,-0.5054,-0.5053,-0.5053,-0.503,-0.503,-0.503,-0.503,-0.4981,-0.498,-0.4978,0,0,0,0,0,0,0,0,0,0,0,0,0,-0.5161,-0.516,-0.5098,-0.5098,-0.5097,-0.5054,-0.5053,-0.5052,-0.503,-0.503,-0.503,-0.503,-0.4981,-0.498,-0.4978,0,0,0,0,0,0,0,0,0,0,0,0,0,-0.5126,-0.5159,-0.5098,-0.5081,-0.5079,-0.5054,-0.5053,-0.5052,-0.503,-0.503,-0.503,-0.503,-0.4982,-0.498,-0.4978,-0.4966,0,0,-0.4972,-0.4971,0,0,0,0,0,0,0,0,-0.5128,-0.5124,-0.5084,-0.5082,-0.508,-0.5047,-0.5057,-0.5023,-0.503,-0.5048,-0.503,-0.503,-0.5003,-0.4999,-0.4991,-0.4964,-0.4962,-0.4972,-0.4971,-0.497,-0.4969,0,0,0,0,0,0,0,-0.5131,-0.5126,-0.508,-0.5083,-0.5081,-0.5074,-0.5069,-0.5051,-0.5026,-0.5047,-0.5045,-0.504,-0.5002,-0.4993,-0.4989,-0.4961,-0.4972,-0.497,-0.4969,-0.4968,-0.4922,-0.4922,0,0,0,0,0,0,-0.5136,-0.5128,-0.5082,-0.5079,-0.5105,-0.5073,-0.5067,-0.5058,-0.5026,-0.5021,-0.504,-0.5039,-0.4996,-0.4992,-0.4988,-0.4971,-0.497,-0.4968,-0.4967,-0.4922,-0.4922,-0.4922,0,0,0,0,0,0,-0.5138,-0.5133,-0.5084,-0.5103,-0.5096,-0.5072,-0.5061,-0.5057,-0.5048,-0.5021,-0.5017,-0.5036,-0.4996,-0.499,-0.4972,-0.4969,-0.4967,-0.4966,-0.4922,-0.4922,-0.4922,-0.4939,0,0,0,0,0,0,-0.514,-0.5133,-0.5129,-0.5103,-0.5095,-0.507,-0.5061,-0.5056,-0.5045,-0.5043,-0.5016,-0.5011,-0.4995,-0.4975,-0.497,-0.4967,-0.4964,-0.4922,-0.4922,-0.4922,-0.4939,-0.494,-0.494,0,0,0,0,0,-0.5142,-0.5136,-0.5129,-0.5124,-0.509,-0.507,-0.5065,-0.5048,-0.5045,-0.504,-0.5023,-0.5012,-0.497,-0.4973,-0.4967,-0.4963,-0.4922,-0.4922,-0.4922,-0.4938,-0.4939,-0.494,0,0,0,0,0,0,-0.5161,-0.5132,-0.5125,-0.511,-0.5093,-0.5066,-0.506,-0.505,-0.5032,-0.5031,-0.5009,-0.5003,-0.4987,-0.4973,-0.4977,-0.495,-0.4945,-0.4944,-0.496,-0.496,-0.4961,-0.4965,-0.4962,0,0,0,0,0,-0.5164,-0.5151,-0.5125,-0.5114,-0.5106,-0.5085,-0.5075,-0.5063,-0.5044,-0.5036,-0.5018,-0.4999,-0.4981,-0.497,-0.4952,-0.4937,-0.493,-0.4931,-0.4932,-0.4933,-0.4932,-0.4921,-0.4921,-0.4921,-0.4921,-0.4921,0,0,-0.5169,-0.5151,-0.5144,-0.5118,-0.5103,-0.5089,-0.5079,-0.5064,-0.5053,-0.5034,-0.5015,-0.5001,-0.4978,-0.4961,-0.4952,-0.4949,-0.493,-0.4932,-0.4933,-0.4932,-0.4921,-0.4921,-0.4921,-0.4921,-0.4921,-0.4921,0,0,-0.517,-0.5156,-0.5145,-0.5131,-0.5109,-0.5095,-0.5092,-0.5067,-0.5057,-0.5038,-0.5024,-0.5009,-0.498,-0.4964,-0.4952,-0.4947,-0.4936,-0.4942,-0.4947,-0.4937,-0.4937,-0.4937,-0.4934,-0.4934,-0.4941,-0.4941,-0.4941,0,-0.5179,-0.5158,-0.5141,-0.5127,-0.5116,-0.5099,-0.5087,-0.5073,-0.5046,-0.5038,-0.5035,-0.4998,-0.4981,-0.4959,-0.4958,-0.4949,-0.4945,-0.4945,-0.4939,-0.4938,-0.4938,-0.4935,-0.4935,-0.4942,-0.4942,-0.4942,-0.4942,0,-0.5169,-0.5155,-0.5149,-0.5124,-0.5112,-0.5099,-0.5079,-0.5068,-0.5057,-0.5043,-0.5023,-0.5003,-0.4981,-0.4975,-0.4964,-0.4951,-0.495,-0.4943,-0.4937,-0.4939,-0.4936,-0.4935,-0.4943,-0.4943,-0.4943,-0.4943,0,0,-0.5182,-0.5148,-0.5146,-0.5134,-0.5109,-0.5097,-0.5083,-0.5062,-0.5053,-0.5035,-0.5022,-0.4997,-0.4991,-0.4977,-0.4964,-0.4955,-0.4952,-0.4949,-0.4948,-0.495,-0.4936,-0.4941,-0.494,-0.4945,-0.4944,-0.4944,-0.4938,0,-0.518,-0.5155,-0.5139,-0.512,-0.5106,-0.5089,-0.5077,-0.5059,-0.5045,-0.503,-0.5014,-0.4997,-0.499,-0.4981,-0.4972,-0.4954,-0.4949,-0.4955,-0.4931,-0.4931,-0.4937,-0.4939,-0.4944,-0.4939,-0.4937,-0.4936,-0.4936,0,-0.5174,-0.5157,-0.5137,-0.5113,-0.5106,-0.5096,-0.5075,-0.5061,-0.504,-0.503,-0.5015,-0.5002,-0.4985,-0.4981,-0.4957,-0.4962,-0.4951,-0.4941,-0.494,-0.4937,-0.4933,-0.4935,-0.4937,-0.4936,-0.4934,-0.4935,-0.4935,0,-0.5184,-0.5157,-0.5141,-0.5132,-0.5103,-0.5096,-0.5083,-0.5062,-0.5051,-0.5032,-0.5024,-0.5004,-0.4992,-0.4976,-0.4957,-0.4956,-0.4934,-0.4929,-0.4925,-0.4925,-0.4921,-0.4921,-0.4921,-0.4915,-0.4915,-0.4915,-0.4915,0,-0.5183,-0.5172,-0.5145,-0.5136,-0.5122,-0.5103,-0.5089,-0.5075,-0.5056,-0.5043,-0.5027,-0.5014,-0.499,-0.4974,-0.4959,-0.4941,-0.4936,-0.4927,-0.4923,-0.4928,-0.4929,-0.492,-0.492,-0.4915,-0.4915,-0.4915,-0.4915,0,-0.5192,-0.5175,-0.5156,-0.5131,-0.5124,-0.5115,-0.5092,-0.5082,-0.5067,-0.505,-0.5045,-0.5021,-0.5001,-0.498,-0.4953,-0.4943,-0.4925,-0.492,-0.4933,-0.4931,-0.4927,-0.4928,-0.4921,-0.4918,-0.4915,-0.4915,-0.4915,0,-0.5193,-0.5184,-0.5157,-0.5148,-0.5136,-0.512,-0.5108,-0.5089,-0.5077,-0.5052,-0.5044,-0.5024,-0.5006,-0.4975,-0.4955,-0.4934,-0.4927,-0.4926,-0.4924,-0.4929,-0.4927,-0.4927,-0.4926,-0.4927,-0.4927,-0.4927,-0.4927,0,-0.5195,-0.5187,-0.5171,-0.5152,-0.5139,-0.5122,-0.5105,-0.5098,-0.5075,-0.5062,-0.5042,-0.5029,-0.5001,-0.4981,-0.4957,-0.4943,-0.4931,-0.4928,-0.4926,-0.4931,-0.4939,-0.4934,-0.4935,-0.4929,-0.4928,-0.4928,-0.4928,-0.4928,-0.5199,-0.519,-0.517,-0.5153,-0.5138,-0.5123,-0.5112,-0.5095,-0.5079,-0.5056,-0.5045,-0.5025,-0.5003,-0.4971,-0.4957,-0.494,-0.4937,-0.4934,-0.4933,-0.4932,-0.4933,-0.4942,-0.4936,-0.4936,-0.4936,-0.4935,-0.4935,0,-0.52,-0.5187,-0.5171,-0.5148,-0.5135,-0.5126,-0.5106,-0.5095,-0.5078,-0.5059,-0.5042,-0.5019,-0.4999,-0.4977,-0.4955,-0.4946,-0.494,-0.4941,-0.4941,-0.4937,-0.4938,-0.4942,-0.4946,-0.4946,-0.4946,-0.4946,-0.4946,-0.4946,-0.5199,-0.5183,-0.5172,-0.5148,-0.5134,-0.5116,-0.5105,-0.509,-0.5075,-0.5051,-0.5034,-0.502,-0.5,-0.4976,-0.4957,-0.4951,-0.4943,-0.4946,-0.4938,-0.4938,-0.4938,-0.4937,-0.494,-0.4944,-0.4944,-0.4939,-0.4939,-0.4939]},{"header":{"parameterUnit":"m.s-1","parameterCategory":1,"la1":30.2991,"la2":30.254,"lo1":-89.0895,"lo2":-89.0444,"dy":0.0017,"dx":0.0017,"nx":28,"ny":28,"refTime":"2025-12-28T03:00:00:Z","depth":0,"parameterNumber":3,"parameterNumberName":"V-component_of_WINDS"},"data":[0,0,0,0,0,0,0,0,0,0,0,0,0,0,0,0,0,0,0,0,0,0,0,0,0,0,0,0,0,0,0,0,0,0,0,0,0,0,0,0,0,0,0,0,0,0,0,0,0,0,0,0,0,0,0,0,0,0,2.0637,2.0639,0,2.0799,2.0801,2.0803,2.0858,2.0857,2.0857,2.0856,2.102,2.1025,2.103,0,0,0,0,0,0,0,0,0,0,0,0,0,2.0379,2.0384,2.0637,2.0639,2.0641,2.0799,2.0801,2.0803,2.0858,2.0857,2.0857,2.0856,2.1019,2.1025,2.1031,0,0,0,0,0,0,0,0,0,0,0,0,0,2.0511,2.0385,2.0637,2.0688,2.0694,2.0798,2.0801,2.0804,2.0858,2.0857,2.0856,2.0855,2.1017,2.1024,2.1031,2.1097,0,0,2.1054,2.1057,0,0,0,0,0,0,0,0,2.0504,2.0521,2.0678,2.0684,2.0691,2.0807,2.077,2.0902,2.0858,2.0796,2.0856,2.0855,2.095,2.0963,2.0995,2.1104,2.1111,2.1055,2.1059,2.1063,2.1065,0,0,0,0,0,0,0,2.0494,2.0514,2.0701,2.068,2.0689,2.0704,2.0721,2.0795,2.0876,2.0801,2.0806,2.0824,2.0954,2.0988,2.1,2.1114,2.1055,2.1061,2.1066,2.1069,2.129,2.1291,0,0,0,0,0,0,2.0477,2.0506,2.0696,2.0706,2.0593,2.0709,2.0729,2.0771,2.0876,2.0891,2.0825,2.0826,2.0976,2.0991,2.1006,2.1093,2.1063,2.107,2.1074,2.1289,2.129,2.1292,0,0,0,0,0,0,2.0471,2.0493,2.0689,2.0607,2.0634,2.0714,2.0762,2.0775,2.0809,2.0894,2.0908,2.0845,2.0976,2.0995,2.1075,2.1099,2.1073,2.108,2.1287,2.1289,2.1291,2.1264,0,0,0,0,0,0,2.0463,2.0491,2.0515,2.0607,2.0638,2.0755,2.0763,2.0779,2.0822,2.0825,2.0916,2.093,2.0976,2.1064,2.1082,2.1109,2.1086,2.1285,2.1288,2.1291,2.1264,2.1265,2.1267,0,0,0,0,0,2.0454,2.0499,2.0516,2.0538,2.067,2.0756,2.0774,2.0826,2.0824,2.085,2.0905,2.0928,2.1093,2.1071,2.1093,2.1122,2.1284,2.1287,2.129,2.1263,2.1265,2.1267,0,0,0,0,0,0,2.0406,2.0512,2.0532,2.0608,2.0673,2.0765,2.08,2.0826,2.0892,2.0892,2.0954,2.0974,2.105,2.1094,2.1067,2.1193,2.119,2.1198,2.1162,2.1165,2.1166,2.1154,2.1092,0,0,0,0,0,2.0405,2.0465,2.0555,2.0614,2.0646,2.0717,2.0757,2.0792,2.0861,2.0889,2.0949,2.1016,2.1084,2.1126,2.1193,2.127,2.1293,2.1301,2.1303,2.1304,2.131,2.1359,2.1365,2.1302,2.1302,2.1302,0,0,2.0402,2.0468,2.0502,2.0607,2.0661,2.0724,2.074,2.0804,2.0853,2.0898,2.0978,2.1026,2.1104,2.1185,2.1223,2.1223,2.1333,2.1308,2.1308,2.1314,2.1363,2.1369,2.1374,2.1305,2.1304,2.1304,0,0,2.043,2.0484,2.0542,2.0597,2.068,2.0728,2.0742,2.0832,2.0865,2.0947,2.0984,2.1043,2.1156,2.1213,2.1256,2.1311,2.1336,2.1331,2.134,2.1387,2.1392,2.1397,2.142,2.1427,2.1337,2.1337,2.1337,0,2.0416,2.0512,2.0568,2.0633,2.068,2.0726,2.0787,2.0837,2.0937,2.0969,2.0968,2.1116,2.1172,2.1268,2.1283,2.1315,2.1335,2.1321,2.1387,2.1392,2.1397,2.142,2.1428,2.1336,2.1336,2.1336,2.1336,0,2.0493,2.0559,2.0596,2.0694,2.0744,2.0806,2.0874,2.0919,2.0951,2.1,2.1085,2.1155,2.1238,2.1264,2.1294,2.1366,2.1365,2.1374,2.1373,2.1402,2.1424,2.1433,2.1334,2.1335,2.1335,2.1335,0,0,2.0491,2.0623,2.0636,2.0683,2.078,2.0834,2.09,2.0983,2.1022,2.1091,2.1149,2.1248,2.126,2.1309,2.1347,2.1388,2.1432,2.1394,2.1397,2.1401,2.152,2.1513,2.1522,2.1449,2.1451,2.1453,2.1515,0,2.0533,2.0653,2.0709,2.0804,2.0869,2.0917,2.0975,2.1042,2.1091,2.1154,2.1207,2.1277,2.1285,2.1316,2.1359,2.1417,2.1457,2.1414,2.1506,2.1509,2.1487,2.1533,2.1525,2.158,2.1523,2.1525,2.1526,0,2.0597,2.0669,2.0772,2.0866,2.0896,2.0947,2.1031,2.1089,2.1168,2.1201,2.1259,2.1296,2.137,2.1364,2.1468,2.1437,2.1479,2.1514,2.1518,2.1529,2.152,2.1548,2.1598,2.1607,2.154,2.1539,2.1538,0,2.059,2.0712,2.079,2.0829,2.094,2.0976,2.1024,2.1102,2.115,2.1224,2.1257,2.1337,2.1381,2.1444,2.1503,2.1492,2.1604,2.1601,2.1635,2.1634,2.1656,2.1654,2.1715,2.168,2.168,2.1679,2.1679,0,2.0632,2.0693,2.0789,2.0837,2.091,2.0974,2.1044,2.1096,2.1166,2.1227,2.1273,2.1329,2.1404,2.147,2.1518,2.1599,2.1618,2.1648,2.166,2.1645,2.1642,2.1674,2.1672,2.1682,2.1681,2.1681,2.168,0,2.0634,2.0701,2.079,2.089,2.0917,2.0966,2.1053,2.1103,2.1156,2.1233,2.1255,2.1337,2.1419,2.1485,2.159,2.1622,2.1709,2.1721,2.1683,2.1689,2.1721,2.1718,2.1806,2.1823,2.1774,2.1774,2.1774,0,2.0657,2.0706,2.0813,2.0858,2.0906,2.0977,2.1028,2.1095,2.1146,2.1243,2.1283,2.1368,2.144,2.1568,2.1638,2.1721,2.1737,2.1763,2.1749,2.1734,2.1741,2.1738,2.1745,2.1764,2.1764,2.1764,2.1764,0,2.0691,2.0723,2.0794,2.0879,2.0939,2.1009,2.1079,2.1114,2.1194,2.125,2.1335,2.1391,2.1502,2.1587,2.1678,2.173,2.1762,2.1768,2.1781,2.1766,2.1743,2.1759,2.1688,2.1765,2.1765,2.1765,2.1765,2.1765,2.0706,2.0754,2.0838,2.0918,2.0979,2.1046,2.1099,2.1161,2.1233,2.1329,2.1365,2.1453,2.1536,2.1662,2.1714,2.1786,2.1788,2.1806,2.1811,2.1814,2.1814,2.1731,2.1802,2.1802,2.1802,2.1802,2.1802,0,2.0744,2.0802,2.0875,2.0975,2.1039,2.1065,2.1146,2.1198,2.1276,2.1351,2.1422,2.1522,2.1607,2.1686,2.1775,2.1817,2.1834,2.1838,2.1836,2.1849,2.1805,2.1786,2.1823,2.1823,2.1823,2.1823,2.1823,2.1823,2.0772,2.0856,2.0899,2.1015,2.1073,2.1161,2.1206,2.1269,2.133,2.1441,2.1512,2.1563,2.1641,2.1737,2.1817,2.1839,2.187,2.1871,2.1896,2.1854,2.1851,2.1848,2.1831,2.1877,2.1877,2.1934,2.1935,2.1935]}]]